Rundle Island Observation History
Time Wind Speed Temp Pressure Rel. Hum Rain
03/07:00am SSW 19-23 kts 14.6°c 1021.9 hPa n/a n/a
03/06:30am SSW 20-24 kts 14.6°c 1021.4 hPa n/a n/a
03/06:00am SSW 21-26 kts 14.9°c 1021.1 hPa n/a n/a
03/05:30am S 20-25 kts 15.1°c 1020.8 hPa n/a n/a
03/05:00am SSW 19-22 kts 15.1°c 1020.7 hPa n/a n/a
03/04:30am SSW 18-21 kts 15.2°c 1020.5 hPa n/a n/a
03/04:00am SSW 17-20 kts 15.2°c 1020.4 hPa n/a n/a
03/03:30am SSW 20-23 kts 15.6°c 1020.4 hPa n/a n/a
03/03:00am SSW 18-21 kts 15.9°c 1020.5 hPa n/a n/a
03/02:30am SSW 17-20 kts 16.1°c 1020.6 hPa n/a n/a
03/02:00am SSW 18-22 kts 16.4°c 1020.7 hPa n/a n/a
03/01:30am SSW 18-21 kts 16.8°c 1020.9 hPa n/a n/a
03/01:00am SSW 19-22 kts 17.4°c 1021.1 hPa n/a n/a
03/12:30am SSW 21-24 kts 17.6°c 1021.2 hPa n/a n/a
03/12:00am SSW 20-23 kts 17.9°c 1021.3 hPa n/a n/a
Time Wind Speed Temp Pressure Rel. Hum Rain
02/11:30pm SSW 18-21 kts 18.2°c 1021.6 hPa n/a n/a
02/11:00pm SSW 17-21 kts 18.6°c 1021.7 hPa n/a n/a
02/10:30pm SSW 17-20 kts 18.7°c 1021.6 hPa n/a n/a
02/10:00pm SSW 17-19 kts 19.1°c 1021.5 hPa n/a n/a
02/09:30pm SSW 17-20 kts 19.5°c 1021.4 hPa n/a n/a
02/09:00pm SW 12-14 kts 19.3°c 1021.3 hPa n/a n/a
02/08:30pm SW 7-9 kts 19.7°c 1021.1 hPa n/a n/a
02/08:00pm SW 9-11 kts 20.3°c 1020.9 hPa n/a n/a
02/07:30pm WSW 8-10 kts 20.8°c 1020.5 hPa n/a n/a
02/07:00pm WNW 2-5 kts 20.6°c 1020.2 hPa n/a n/a
02/06:30pm N 2-3 kts 21.4°c 1019.7 hPa n/a n/a
02/06:00pm NE 4-5 kts 21.3°c 1019.2 hPa n/a n/a
02/05:30pm NE 5-6 kts 21.3°c 1018.8 hPa n/a n/a
02/05:00pm NE 5-6 kts 21.6°c 1018.5 hPa n/a n/a
02/04:30pm NE 6-8 kts 22.2°c 1018.0 hPa n/a n/a
02/04:00pm ENE 5-6 kts 22.6°c 1018.0 hPa n/a n/a
02/03:30pm ENE 7-8 kts 22.3°c 1017.9 hPa n/a n/a
02/03:00pm ENE 6-8 kts 22.4°c 1018.0 hPa n/a n/a
02/02:30pm NE 5-6 kts 22.9°c 1018.2 hPa n/a n/a
02/02:00pm ENE 4-5 kts 23.3°c 1018.3 hPa n/a n/a
02/01:30pm NE 4-5 kts 23.9°c 1018.4 hPa n/a n/a
02/01:00pm ENE 4-5 kts 23.5°c 1018.4 hPa n/a n/a
02/12:30pm ENE 5-7 kts 22.8°c 1018.6 hPa n/a n/a
02/12:00pm SE 5-6 kts 22.1°c 1019.0 hPa n/a n/a
02/11:30am SSE 5-6 kts 22.0°c 1019.2 hPa n/a n/a
02/11:00am S 5-6 kts 21.5°c 1019.4 hPa n/a n/a
02/10:30am S 6-7 kts 21.9°c 1019.7 hPa n/a n/a
02/10:00am SSW 8-9 kts 20.8°c 1019.8 hPa n/a n/a
02/09:30am SSW 12-13 kts 20.5°c 1019.6 hPa n/a n/a
02/09:00am SSW 14-17 kts 20.4°c 1019.6 hPa n/a n/a
02/08:30am SSW 12-14 kts 20.4°c 1019.5 hPa n/a n/a
02/08:00am SSW 12-15 kts 20.0°c 1019.2 hPa n/a n/a
02/07:30am SSW 14-17 kts 19.9°c 1019.1 hPa n/a n/a
02/07:00am SSW 12-15 kts 20.1°c 1018.7 hPa n/a n/a
02/06:30am SW 6-7 kts 19.7°c 1018.6 hPa n/a n/a
02/06:00am SW 7-9 kts 19.5°c 1018.1 hPa n/a n/a
02/05:30am SW 8-12 kts 19.5°c 1017.8 hPa n/a n/a
02/05:00am SW 9-12 kts 19.5°c 1017.3 hPa n/a n/a
02/04:30am W 4-5 kts 19.9°c 1016.5 hPa n/a n/a
02/04:00am WNW 6-7 kts 20.1°c 1016.5 hPa n/a n/a
02/03:30am WNW 7-8 kts 20.8°c 1016.4 hPa n/a n/a
02/03:00am NW 7-8 kts 21.1°c 1016.3 hPa n/a n/a
02/02:30am NW 8-9 kts 21.1°c 1016.5 hPa n/a n/a
02/02:00am NW 8-9 kts 20.8°c 1016.6 hPa n/a n/a
02/01:30am NW 6-7 kts 20.6°c 1016.7 hPa n/a n/a
02/01:00am NW 7 kts 20.7°c 1016.8 hPa n/a n/a
02/12:30am NW 7-9 kts 20.8°c 1016.9 hPa n/a n/a
02/12:00am NW 7-8 kts 21.0°c 1016.9 hPa n/a n/a
Time Wind Speed Temp Pressure Rel. Hum Rain
01/11:30pm NW 9-10 kts 21.6°c 1017.0 hPa n/a n/a
01/11:00pm NNW 10-11 kts 21.9°c 1017.1 hPa n/a n/a
01/10:30pm NNW 10-11 kts 22.0°c 1017.1 hPa n/a n/a
01/10:00pm NNW 10-11 kts 22.0°c 1017.0 hPa n/a n/a
01/09:30pm NNW 10-12 kts 22.0°c 1017.0 hPa n/a n/a
01/09:00pm N 11-13 kts 22.1°c 1016.9 hPa n/a n/a
01/08:30pm N 11-12 kts 22.1°c 1016.9 hPa n/a n/a
01/08:00pm N 9-11 kts 21.9°c 1017.0 hPa n/a n/a
01/07:30pm N 9-10 kts 21.9°c 1017.0 hPa n/a n/a
01/07:00pm N 8-9 kts 22.0°c 1016.8 hPa n/a n/a
01/06:30pm N 8-10 kts 21.9°c 1016.5 hPa n/a n/a
01/06:00pm N 10-12 kts 22.0°c 1016.0 hPa n/a n/a
01/05:30pm N 11-12 kts 22.0°c 1015.8 hPa n/a n/a
01/05:00pm NNE 9-11 kts 22.1°c 1015.7 hPa n/a n/a
01/04:30pm N 9-10 kts 22.2°c 1015.6 hPa n/a n/a
01/04:00pm N 9-11 kts 22.3°c 1015.4 hPa n/a n/a
01/03:30pm N 8-9 kts 22.4°c 1015.6 hPa n/a n/a
01/03:00pm N 8-9 kts 22.1°c 1015.6 hPa n/a n/a
01/02:30pm N 8-9 kts 22.1°c 1015.6 hPa n/a n/a
01/02:00pm N 7-8 kts 22.3°c 1015.7 hPa n/a n/a
01/01:30pm NNE 6-7 kts 23.6°c 1016.1 hPa n/a n/a
01/01:00pm NE 5-6 kts 23.4°c 1016.3 hPa n/a n/a
01/12:30pm ENE 5-7 kts 23.0°c 1016.6 hPa n/a n/a
01/12:00pm E 5 kts 23.1°c 1017.1 hPa n/a n/a
01/11:30am E 4-5 kts 22.9°c 1017.6 hPa n/a n/a
01/11:00am SE 4-5 kts 21.6°c 1018.2 hPa n/a n/a
01/10:30am SE 5-6 kts 21.6°c 1018.4 hPa n/a n/a
01/10:00am SSE 5-6 kts 21.1°c 1018.7 hPa n/a n/a
01/09:30am SSE 6-7 kts 21.3°c 1019.1 hPa n/a n/a
01/09:00am SSE 6 kts 20.5°c 1019.1 hPa n/a n/a
01/08:30am S 7-8 kts 20.4°c 1019.1 hPa n/a n/a
01/08:00am SSW 6-7 kts 20.2°c 1019.0 hPa n/a n/a
01/07:30am SSW 7-8 kts 20.2°c 1018.7 hPa n/a n/a
01/07:00am SSW 8-9 kts 19.7°c 1018.6 hPa n/a n/a
01/06:30am SW 8-9 kts 19.6°c 1018.4 hPa n/a n/a
01/06:00am SSW 7-9 kts 19.9°c 1017.9 hPa n/a n/a
01/05:30am S 7 kts 20.0°c 1017.6 hPa n/a n/a
01/05:00am ESE 4-6 kts 21.2°c 1017.5 hPa n/a n/a
01/04:30am E 6-7 kts 21.1°c 1017.4 hPa n/a n/a
01/04:00am ENE 4-6 kts 21.3°c 1017.4 hPa n/a n/a
01/03:30am NNE 4-6 kts 21.4°c 1017.7 hPa n/a n/a
01/03:00am NNE 7-8 kts 21.4°c 1017.7 hPa n/a n/a
01/02:30am NNE 9-11 kts 21.4°c 1017.7 hPa n/a n/a
01/02:00am NNE 9-10 kts 21.4°c 1017.8 hPa n/a n/a
01/01:30am NE 6-8 kts 21.2°c 1018.2 hPa n/a n/a
01/01:00am ENE 10-12 kts 21.1°c 1018.5 hPa n/a n/a
01/12:30am ENE 12-13 kts 21.2°c 1018.4 hPa n/a n/a
01/12:00am E 11-12 kts 21.1°c 1018.6 hPa n/a n/a